This is the latest recevied weather packets stored in our database for station/object N8VDS-10. If no packets are shown the sender has not sent any weather packets the latest 10 day(s).
| Time | Temp. | Humidity | Pressure | Rain* | Wind** | Luminosity | Snow |
|---|---|---|---|---|---|---|---|
| 1778165891 | 10° C | 50% | 1016.4 hPa | 0 mm | - | 202 W/m² | - |
| 1778165587 | 9.44° C | 50% | 1016.1 hPa | 0 mm | - | 744 W/m² | - |
| 1778165285 | 10° C | 48% | 1016.4 hPa | 0 mm | - | 689 W/m² | - |
| 1778164982 | 10° C | 48% | 1016.3 hPa | 0 mm | - | 579 W/m² | - |
| 1778164678 | 9.44° C | 50% | 1016.3 hPa | 0 mm | - | 641 W/m² | - |
| 1778164376 | 10° C | 49% | 1016.3 hPa | 0 mm | - | 575 W/m² | - |
| 1778164072 | 9.44° C | 49% | 1016.2 hPa | 0 mm | - | 565 W/m² | - |
| 1778163768 | 10° C | 50% | 1016.3 hPa | 0 mm | - | 427 W/m² | - |
| 1778163464 | 10° C | 50% | 1016.2 hPa | 0 mm | - | 506 W/m² | - |
| 1778163162 | 9.44° C | 50% | 1016.2 hPa | 0 mm | - | 497 W/m² | - |
| 1778162857 | 9.44° C | 50% | 1016.2 hPa | 0 mm | - | 482 W/m² | - |
| 1778162556 | 10° C | 51% | 1016.3 hPa | 0 mm | - | 466 W/m² | - |
| 1778162253 | 9.44° C | 51% | 1016.2 hPa | 0 mm | - | 456 W/m² | - |
| 1778161950 | 8.89° C | 50% | 1016.3 hPa | 0 mm | - | 434 W/m² | - |
| 1778161646 | 8.89° C | 50% | 1016.3 hPa | 0 mm | - | 413 W/m² | - |
| 1778161342 | 8.89° C | 49% | 1016.3 hPa | 0 mm | - | 406 W/m² | - |
| 1778161038 | 8.89° C | 52% | 1016.4 hPa | 0 mm | - | 389 W/m² | - |
| 1778160735 | 8.89° C | 55% | 1016.2 hPa | 0 mm | - | 390 W/m² | - |
| 1778160433 | 8.89° C | 54% | 1016.4 hPa | 0 mm | - | 366 W/m² | - |
| 1778160129 | 8.33° C | 56% | 1016.4 hPa | 0 mm | - | 342 W/m² | - |
| 1778159826 | 7.78° C | 55% | 1016.7 hPa | 0 mm | - | 332 W/m² | - |
| 1778159524 | 8.33° C | 55% | 1016.3 hPa | 0 mm | - | 231 W/m² | - |
| 1778159220 | 8.89° C | 55% | 1016.4 hPa | 0 mm | - | 332 W/m² | - |
| 1778158917 | 7.78° C | 58% | 1016.5 hPa | 0 mm | - | 224 W/m² | - |
| 1778158616 | 7.78° C | 59% | 1016.3 hPa | 0 mm | - | 307 W/m² | - |
* Rain latest hour (hover to see other rain measurements)
** Current wind speed in m/s (hover to see current wind gust speed)